Theta_e
350 361 366 366 365 364 364 363 362 362 361 361 361 361 362 361 362 362 362 361 361 359 356 353 351 349 346 344 342 347 352 353 354 353 353 353 354 355 356 355 352 350 355
352 359 365 365 364 364 364 363 362 361 360 361 361 362 362 362 362 361 361 361 359 355 352 350 347 344 342 340 339 342 343 345 350 352 352 352 352 353 353 352 349 349 353
351 358 362 364 365 364 363 362 361 360 360 361 361 361 361 362 362 361 360 360 358 353 350 347 344 342 340 338 337 338 338 340 343 344 349 347 347 350 351 351 349 346 349
351 354 359 364 364 364 363 362 361 360 360 361 361 361 361 361 362 360 360 360 355 352 349 345 343 341 340 338 338 337 338 341 343 345 335 338 343 350 350 350 351 346 346
349 351 358 364 364 364 363 362 361 360 361 361 361 362 361 361 361 360 360 359 355 351 347 345 343 342 340 339 339 341 341 344 345 341 333 330 337 350 351 351 350 349 350
348 350 360 363 363 363 363 362 361 361 361 362 362 361 362 361 360 359 359 358 356 351 347 345 346 344 342 340 343 342 343 344 344 334 334 339 338 353 352 353 353 350 350
345 351 357 362 363 364 364 363 362 361 361 361 362 362 362 361 359 359 358 358 356 353 351 348 348 346 346 345 344 343 344 343 335 331 330 333 342 352 355 354 351 351 351
343 351 354 361 362 362 363 362 362 361 361 361 361 361 361 360 359 359 358 357 356 353 352 351 348 347 347 346 345 344 345 344 339 336 334 339 346 353 355 354 353 351 349
345 350 351 355 361 362 361 361 361 360 361 361 360 360 360 360 358 358 357 356 356 353 352 351 350 348 347 347 346 345 345 344 337 336 335 335 351 354 354 354 353 352 350
348 349 348 351 355 355 357 361 360 360 360 360 360 360 360 359 358 357 354 354 355 354 353 352 351 350 348 347 346 346 345 343 336 335 332 336 352 355 354 353 354 352 350
350 347 346 348 349 351 353 357 359 361 360 360 360 359 356 351 352 353 353 353 355 354 354 352 351 350 349 348 348 347 345 335 335 333 331 343 352 354 353 353 353 354 352
346 346 344 344 346 346 353 353 350 355 354 353 353 353 350 346 346 350 351 354 355 354 354 353 352 351 350 341 338 346 338 335 334 333 331 348 352 354 352 352 352 352 353
328 345 343 343 345 344 345 350 348 348 347 346 347 349 345 345 342 347 342 347 347 353 347 349 348 346 342 338 335 330 337 335 332 332 334 352 351 353 350 351 352 352 352
329 336 340 343 343 342 346 348 346 346 345 344 343 346 345 341 339 338 341 342 344 344 343 340 341 340 339 336 333 331 334 333 333 333 335 351 350 352 351 350 351 352 353
326 331 341 345 344 349 348 349 345 340 344 344 344 345 347 343 340 343 343 343 343 344 344 342 341 338 338 337 335 335 333 333 333 333 336 351 349 350 353 350 349 350 352
325 326 336 341 346 346 346 351 350 348 341 343 345 345 346 347 345 342 345 343 344 344 346 344 342 339 339 338 338 337 337 336 336 335 334 343 348 348 350 353 352 351 350
324 327 334 341 345 345 346 350 348 347 347 345 344 345 348 346 346 348 346 342 341 341 338 339 338 339 339 339 336 336 338 338 337 337 336 334 342 348 348 350 352 353 353
324 325 326 338 342 344 345 345 346 346 342 342 342 347 349 350 349 347 345 343 342 340 339 336 332 331 333 333 332 334 337 337 339 338 337 336 335 340 346 349 349 350 351
325 325 324 328 341 342 344 346 344 346 346 342 340 341 349 350 351 347 345 343 342 340 337 335 334 332 331 332 336 337 339 339 339 340 339 336 337 341 339 344 348 347 348
321 323 324 330 337 340 344 346 346 345 342 342 342 340 341 347 351 347 344 343 341 340 336 333 333 335 332 332 339 339 338 340 340 340 339 340 340 342 341 341 344 344 346
322 323 322 323 326 335 338 339 336 342 343 343 345 344 343 344 345 346 343 341 342 341 335 333 335 333 332 337 336 335 337 339 341 340 340 339 341 341 343 344 342 342 343
318 319 321 326 327 328 326 327 331 334 336 341 344 344 346 344 341 341 343 341 339 339 337 337 336 332 334 340 337 332 329 331 336 339 339 339 340 342 343 344 342 342 341
316 316 317 317 320 323 326 323 323 323 325 326 328 332 343 347 345 342 343 341 340 339 336 335 336 334 330 337 341 335 327 325 331 337 338 338 337 339 340 340 342 341 343
315 315 316 318 317 317 322 323 321 320 318 320 323 327 328 332 343 342 340 342 340 340 337 335 339 338 338 332 337 343 339 337 329 328 336 337 337 339 336 336 338 340 339
314 313 313 315 316 317 319 319 321 321 323 325 325 322 322 329 338 348 342 339 340 339 340 339 338 339 340 339 337 336 336 334 336 333 329 330 333 335 335 335 335 335 335
310 311 314 314 314 317 318 319 319 319 323 323 322 323 327 329 329 332 339 344 341 342 340 339 342 340 341 342 343 340 332 333 331 333 332 328 327 330 334 335 335 333 334
Wind_Speed
6 10 12 15 18 19 17 13 14 14 14 15 15 15 15 14 15 15 15 14 13 12 12 11 9 8 8 9 9 9 8 8 7 8 8 9 10 10 10 14 11 8 8
15 11 12 13 17 20 18 14 13 14 14 15 14 15 14 13 14 14 13 12 11 11 10 10 9 7 7 7 6 6 6 4 4 3 5 6 7 10 11 11 10 7 8
14 12 12 14 17 19 19 15 14 14 15 14 14 14 13 13 14 13 12 11 10 11 10 9 8 6 6 5 5 4 3 3 3 2 2 1 2 6 10 10 8 8 8
16 13 11 14 16 19 21 17 13 14 15 14 14 14 13 13 13 13 11 10 10 9 10 9 7 6 5 5 3 3 3 5 5 6 3 4 4 6 9 8 7 7 6
13 14 14 13 14 17 19 19 15 12 14 14 14 13 12 12 12 12 10 10 9 9 9 8 6 5 4 4 3 3 5 8 9 8 4 6 6 7 8 7 7 6 5
15 14 17 15 12 15 17 17 16 13 12 13 13 12 11 10 10 10 9 9 8 8 8 8 7 4 3 3 1 3 5 7 9 5 5 4 6 11 9 9 9 8 5
15 13 17 18 14 12 18 19 18 17 12 12 12 11 11 11 10 10 9 8 8 7 7 8 6 5 2 1 1 3 6 8 6 5 5 5 5 12 11 9 9 7 6
17 15 16 22 15 12 13 18 18 17 16 13 12 11 10 10 10 9 8 8 7 7 6 6 5 4 3 3 3 4 5 8 7 6 3 3 8 12 12 10 9 8 6
17 14 13 16 16 15 12 16 19 18 17 14 12 11 10 9 9 9 8 8 7 7 6 5 5 5 5 5 5 6 7 9 6 5 7 2 11 12 12 11 9 8 7
16 11 13 13 14 10 9 13 17 18 17 18 15 12 11 10 9 8 8 7 7 6 7 7 6 7 7 6 7 8 10 11 6 6 4 3 12 13 13 12 10 9 7
11 9 12 14 13 11 9 8 12 16 16 15 14 14 11 5 6 7 7 9 9 9 9 8 8 8 9 9 10 12 14 4 6 5 3 9 16 16 14 13 11 10 9
11 7 7 14 14 14 10 9 5 8 6 6 7 9 6 6 6 8 10 14 13 12 11 10 10 11 10 4 5 13 5 5 5 7 4 11 17 15 14 13 12 11 10
4 11 12 11 16 13 10 8 5 4 4 4 7 7 6 6 5 5 4 4 4 10 4 7 7 6 7 5 6 5 6 5 5 6 4 13 14 14 13 12 12 12 12
8 7 9 10 11 12 7 9 10 7 7 5 5 8 6 4 5 5 4 6 6 4 6 6 5 7 7 8 9 6 8 6 5 5 5 15 13 13 12 13 13 12 12
10 8 6 8 7 7 9 4 6 5 6 8 8 7 6 5 5 5 5 5 6 5 6 6 7 6 7 7 8 7 7 7 7 4 3 15 14 15 14 14 15 13 14
9 8 3 7 7 6 6 7 5 6 6 7 8 9 10 6 6 5 5 5 5 5 7 7 7 6 6 7 7 8 9 6 6 5 3 6 14 13 12 15 14 14 15
8 8 8 7 5 4 6 4 3 5 5 4 5 10 12 10 8 7 5 5 5 4 7 5 4 5 4 4 7 5 5 6 6 6 5 4 6 14 15 14 15 14 14
5 11 8 6 9 9 5 3 3 1 3 2 3 5 11 11 10 7 5 5 5 4 4 3 4 2 2 2 3 5 5 5 7 7 5 5 5 4 10 14 15 15 14
6 8 8 4 8 7 8 6 3 2 1 2 4 1 7 9 9 6 5 4 5 4 4 3 3 1 2 3 4 5 6 5 6 6 6 7 7 5 4 10 17 16 16
6 5 3 2 2 7 4 5 4 3 3 2 3 5 4 5 7 7 4 4 5 4 4 2 3 3 4 5 4 5 5 5 5 5 6 6 6 7 6 7 6 9 17
8 5 3 3 1 3 2 2 8 8 5 3 4 7 5 5 7 7 5 5 5 4 4 5 3 5 3 2 2 3 4 6 7 5 6 5 5 7 7 7 5 4 6
10 9 6 4 2 1 1 2 4 3 6 6 3 6 4 6 6 7 9 7 7 4 6 5 4 3 3 4 3 1 5 5 4 5 4 5 6 4 5 6 6 7 5
9 8 8 7 5 3 2 2 2 4 3 6 4 2 4 6 6 8 9 8 8 6 6 6 5 7 4 2 6 4 2 4 4 2 4 4 6 4 5 5 7 7 7
8 8 8 7 6 3 1 2 4 2 3 5 6 3 5 4 7 9 8 8 7 5 5 5 6 5 5 5 3 5 5 4 1 9 4 4 6 7 5 4 5 6 6
10 8 8 8 7 5 5 4 3 4 3 3 3 3 5 6 8 6 8 8 7 6 8 6 9 6 7 5 4 3 1 5 4 5 11 5 3 6 5 5 5 5 6
9 9 8 9 8 7 6 6 6 4 4 4 3 2 2 4 5 5 8 7 7 8 10 9 10 10 9 7 4 5 5 4 2 4 8 5 5 6 5 5 5 5 5
Wind_Direction
125 137 148 146 133 126 126 130 125 123 118 110 106 102 98 101 100 99 99 102 106 108 111 106 93 80 71 62 58 55 59 65 80 100 104 106 102 90 69 49 93 86 86
134 139 147 149 136 131 130 132 131 129 122 116 116 113 114 113 110 111 111 111 110 112 109 103 95 89 76 69 64 59 51 50 46 73 113 116 111 105 87 80 86 88 78
134 140 147 156 144 136 131 136 138 134 127 127 125 122 123 123 121 120 117 119 122 120 112 103 104 101 89 73 65 59 33 351 351 324 286 128 110 115 102 89 85 86 86
144 146 146 158 152 144 137 139 141 140 135 135 132 131 135 135 132 128 126 124 126 122 114 110 106 105 101 86 57 33 350 318 329 329 317 273 201 140 108 103 100 96 94
147 152 150 156 154 149 142 140 140 141 138 138 135 136 138 139 134 129 132 134 137 131 123 118 114 109 102 88 49 358 341 332 334 335 301 280 169 141 133 124 132 116 88
154 155 148 147 153 153 142 137 137 134 138 136 135 139 140 140 134 134 140 142 145 143 136 133 133 131 128 120 63 334 328 328 326 310 302 303 166 151 152 140 115 128 123
160 151 149 144 148 158 146 141 140 138 137 137 139 144 146 147 145 145 150 152 156 157 154 147 143 148 164 179 243 311 317 316 311 299 316 266 172 155 157 150 132 131 137
159 153 153 140 142 148 155 142 139 139 139 139 141 146 152 151 151 154 159 165 170 167 164 161 157 173 195 234 258 285 299 304 312 303 304 311 187 163 162 159 152 148 156
147 148 149 143 140 143 152 146 141 141 140 139 145 151 153 158 159 163 171 176 182 185 179 187 177 198 220 239 262 273 279 287 291 284 299 267 193 172 172 165 166 165 171
131 149 146 144 135 130 137 154 146 146 147 149 153 155 158 163 168 178 185 191 196 201 192 195 200 203 221 234 247 258 262 268 271 272 261 218 210 185 177 173 175 177 182
117 144 149 142 138 135 130 154 149 148 150 153 155 157 159 160 174 189 194 208 209 207 203 202 204 211 218 223 232 237 246 246 261 259 250 253 195 194 185 180 184 183 189
137 141 182 152 150 149 153 142 150 151 154 156 160 164 166 174 184 195 201 210 208 212 209 206 205 213 213 213 237 241 239 228 247 258 254 233 192 196 187 187 192 194 196
121 166 178 170 156 160 152 151 158 164 161 176 172 174 181 185 194 199 198 203 199 214 207 212 219 213 204 210 228 219 217 217 238 257 258 213 190 199 192 196 196 199 201
39 50 145 165 161 165 135 160 168 172 176 182 190 178 178 195 200 207 188 185 193 200 208 217 222 220 214 216 229 220 217 212 221 240 254 189 187 195 202 205 203 201 200
78 55 82 145 152 133 120 142 153 173 193 179 185 184 177 186 202 207 201 178 189 191 206 214 225 217 213 221 231 237 249 230 224 215 182 186 192 201 203 210 212 206 206
112 108 86 154 152 148 125 154 157 136 190 184 186 190 189 180 198 212 220 190 189 194 208 214 221 219 207 204 221 229 234 239 243 236 232 197 197 206 209 218 218 212 213
146 132 141 152 128 118 107 99 137 151 117 167 199 189 190 193 199 198 205 215 223 218 213 205 215 216 188 211 225 236 241 235 239 232 228 214 201 208 213 222 223 220 218
173 152 167 170 147 137 109 150 99 10 125 188 179 169 201 185 193 206 194 211 225 237 244 251 224 228 182 241 275 261 261 244 238 228 224 227 217 198 223 226 220 225 219
188 156 167 165 159 162 152 148 148 207 150 229 257 167 176 206 190 183 196 204 210 230 239 218 265 124 169 260 256 251 258 250 235 232 218 224 216 218 198 223 214 216 220
133 120 106 54 347 172 165 139 106 353 188 297 275 243 205 186 206 195 187 203 224 224 246 215 205 211 202 220 260 266 256 262 241 225 219 217 212 221 223 203 202 218 222
104 100 121 169 50 41 127 217 175 129 290 181 256 252 207 189 177 179 197 217 220 222 222 216 185 207 267 259 293 305 291 276 248 229 222 217 217 227 218 215 192 211 212
147 131 90 77 17 19 46 1 357 214 120 304 180 246 245 240 207 186 187 201 216 214 222 215 189 198 206 180 238 49 317 321 296 245 220 220 214 236 239 217 184 201 207
138 136 130 118 89 2 263 339 3 48 343 152 259 233 251 227 215 218 192 193 205 196 224 212 199 200 231 237 214 164 288 256 340 347 290 269 254 242 239 211 199 203 204
140 131 126 130 128 160 2 196 194 229 244 290 168 174 243 291 264 226 212 184 209 192 220 220 229 222 178 200 267 207 196 173 214 308 319 280 262 253 212 199 202 207 202
138 146 158 155 158 179 192 208 206 213 212 236 313 183 204 232 233 239 218 201 200 210 222 217 235 213 230 159 214 180 225 238 172 218 275 285 307 260 219 213 209 202 213
157 162 164 166 195 192 189 210 219 225 247 280 241 230 232 259 225 207 243 200 198 222 222 223 234 215 214 184 197 231 177 232 227 198 245 244 230 273 237 217 209 199 203